Vertical_Velocity
-2 2 -1 3 -1 -4 -3 -5 -0 -4 -7 -3 -1 9 -1 -1 2 1 -1 -0 2 0 -3 -3 1 -0 -0 1 -1 1 0 1 1 0 2 -1 -5 1 1 0 3 3 -1 -3
-1 -5 7 -3 -5 -2 0 -1 3 -8 -7 -2 6 0 -2 -4 2 -1 -0 -2 -0 -0 -0 -2 -2 -1 -0 1 1 -3 -1 -6 -2 -0 -2 4 1 2 -1 -1 1 -0 -2 2
4 9 4 5 -0 1 -4 9 -5 2 -6 -2 -0 -5 -4 -1 -3 -1 -2 -1 -5 -3 -3 -0 -4 -2 -1 -1 0 1 1 4 0 2 -0 2 -1 -1 -2 0 3 -1 5 -1
4 5 -1 -0 -1 -2 7 2 -0 0 -4 12 -7 5 -5 1 0 -4 -2 -5 -2 -3 -2 -4 -2 -6 -2 1 -2 0 -3 1 -1 1 -0 3 1 8 -4 12 -1 0 3 -1
-10 -2 -2 -2 -3 -0 16 1 3 -3 1 -1 -2 3 8 -2 -2 -0 -1 0 -2 -1 -8 -5 -4 0 -1 -3 -0 1 -1 -0 0 0 1 0 -0 -3 -4 1 -4 1 1 -1
24 -3 -2 11 1 -2 -1 1 -2 -5 -1 5 1 3 4 1 1 8 5 -0 1 -5 -6 -2 1 -1 -1 -0 -2 -2 -3 -2 -4 -2 -2 -1 -1 2 -2 -6 0 -1 2 9
3 -5 -0 -3 2 -2 -1 4 4 8 8 -4 -4 0 -9 -0 -4 -2 0 7 5 5 3 -2 -5 -6 1 -4 3 3 -1 -1 0 -1 -0 3 5 -0 -11 -7 -2 4 2 5
-2 26 -6 -6 -8 7 -11 0 -3 -1 -1 -1 -3 -3 4 2 -3 -0 0 -3 2 3 0 -7 -1 5 2 3 3 2 0 2 0 2 4 2 5 3 10 3 10 14 0 3
2 1 1 -0 -2 -2 -7 -2 7 3 -4 2 -1 -7 -19 -0 1 -6 -4 -1 -0 2 5 11 8 3 6 -1 2 6 5 7 -7 5 5 3 5 7 4 8 2 -1 -8 -8
-10 12 -5 -1 2 -2 5 3 0 -2 2 1 2 -2 4 -5 4 -3 0 5 0 1 1 1 3 5 3 4 3 3 4 3 3 -0 3 2 3 3 12 -4 -7 -2 2 6
12 -2 4 7 -12 5 -4 0 -4 4 0 0 0 -6 -11 -1 1 -3 0 0 0 -0 -1 -1 -1 -2 -2 -1 1 0 -2 -6 -2 -1 2 0 -3 4 -5 -8 7 8 4 2
-9 -3 4 -18 -2 -7 16 17 3 6 2 -0 -1 -20 -5 0 0 -7 5 0 0 -1 -4 -2 -0 -1 0 -1 -2 -1 3 5 6 2 -2 -3 1 6 1 1 0 6 6 3
-7 -12 6 14 2 2 -2 -3 4 2 2 -4 6 -8 -4 -3 -1 -6 3 4 2 1 -2 -0 -1 -0 -2 -2 -3 -1 -3 -2 -1 -1 -2 -2 -3 -8 -1 -1 4 1 -1 1
12 5 -10 -18 -23 5 -3 -2 -0 2 9 -9 -9 -4 6 -2 -0 2 -1 -1 -0 3 3 1 1 6 -0 -3 -3 -3 -3 -1 5 4 2 0 1 2 3 2 1 2 0 -0
12 5 1 -4 -3 7 -4 5 -1 0 -10 14 -14 2 -8 -3 0 9 -4 -2 -0 2 1 3 4 2 2 3 1 1 4 2 9 2 -1 -2 1 1 2 1 1 1 3 1
-1 -3 3 -2 5 -5 -0 -2 3 1 3 6 -2 -9 -7 0 -4 -1 -0 -5 -1 -1 2 3 3 6 6 3 4 4 3 2 4 2 1 0 1 1 -0 -2 -1 1 2 1
6 0 4 -13 -0 7 7 -17 -8 -3 3 -2 3 -13 13 -5 -3 0 1 -1 -2 1 1 1 3 4 5 4 2 1 1 1 -0 -0 0 1 0 -2 -1 -1 -1 0 2 -1
-3 5 6 2 8 4 -23 -5 -2 -6 2 8 -2 -8 0 -2 -2 2 0 1 -3 -0 -1 2 3 3 2 1 2 1 0 1 1 -0 -1 -2 -2 -2 -1 0 -0 -1 -2 -2
2 9 -1 -1 -5 -8 1 -10 -10 -5 -18 3 -5 4 5 -4 -2 -3 -1 2 -0 3 1 1 2 1 2 1 1 1 -1 -1 -1 -1 -2 -2 -1 0 -1 -0 1 -1 0 -1
2 3 7 5 1 -2 -15 -7 -1 1 -20 -6 1 -1 -0 5 -3 -6 4 2 1 2 3 2 1 1 1 -0 -1 -0 -1 -1 -1 -1 -1 -1 -3 -2 -1 -0 0 0 1 -0
1 3 -8 -3 -0 -5 -8 -2 8 7 -52 -4 -4 -3 -5 -4 6 -10 -2 0 1 1 1 1 0 -0 -2 -2 -3 -3 -2 -3 -4 -4 -4 -3 -1 -1 -1 -1 -2 -2 -2 -3
3 -1 -3 9 4 -5 -6 2 -11 -11 -1 -1 -3 -2 -0 -3 -0 1 -1 1 3 2 0 0 -0 -0 -2 -3 -4 -3 -3 -3 -3 -2 -2 -2 -2 -1 -2 -3 -3 -3 -2 -2
-2 -1 -4 1 -20 -2 -6 2 2 -1 -3 -2 -3 -4 -5 2 -2 1 -1 0 1 -0 -1 -1 -1 -2 -3 -3 -2 -2 -3 -3 -2 -1 -2 -2 -2 -3 -3 -3 -3 -2 -2 -1
-1 -3 -2 14 -10 -4 3 3 -4 -1 2 2 -3 -2 -3 -1 -1 1 0 -0 0 -0 -2 -2 -2 -3 -2 -2 -2 -2 -1 -2 -3 -3 -2 -3 -3 -3 -2 -2 -2 -2 -3 -3
10 4 1 -9 -2 1 -4 -7 5 2 3 2 -2 -2 -0 -3 0 2 1 -0 -1 -1 -1 -1 -1 -0 -1 -2 -2 -2 -2 -2 -2 -2 -2 -2 -1 -1 -2 -1 -2 -2 -0 -1
-6 -4 -7 -28 8 4 -7 2 8 -2 2 3 1 -3 -3 -1 1 3 1 0 -0 -1 -1 -1 -1 -1 -1 -1 -1 -3 -2 -0 -0 -0 -1 -1 -2 -2 -2 -3 -5 7 -2 -1
Height
3126 3128 3125 3125 3126 3126 3126 3127 3126 3126 3127 3128 3128 3129 3128 3127 3126 3127 3128 3129 3130 3131 3132 3132 3133 3135 3137 3139 3141 3143 3145 3147 3149 3152 3154 3156 3157 3159 3161 3162 3163 3164 3165 3166
3126 3123 3123 3122 3123 3124 3125 3125 3125 3127 3126 3126 3126 3127 3127 3126 3126 3127 3128 3129 3130 3131 3131 3132 3134 3136 3137 3140 3142 3144 3147 3149 3150 3152 3154 3155 3157 3158 3160 3160 3162 3163 3163 3163
3123 3122 3121 3121 3122 3123 3124 3123 3125 3125 3124 3123 3124 3125 3124 3124 3125 3126 3126 3128 3129 3130 3131 3133 3134 3136 3138 3139 3141 3144 3146 3148 3150 3151 3152 3154 3155 3156 3157 3158 3158 3159 3159 3159
3120 3120 3120 3121 3121 3122 3122 3122 3123 3123 3123 3121 3122 3118 3121 3122 3122 3123 3124 3125 3127 3129 3131 3133 3133 3136 3137 3138 3140 3142 3144 3145 3147 3148 3149 3151 3152 3153 3154 3154 3155 3155 3154 3154
3117 3116 3118 3120 3120 3120 3121 3121 3122 3122 3122 3121 3120 3120 3117 3119 3119 3120 3121 3122 3124 3126 3128 3130 3132 3133 3135 3136 3138 3140 3142 3143 3145 3146 3147 3148 3149 3150 3149 3150 3150 3150 3149 3148
3112 3112 3115 3117 3117 3118 3118 3120 3120 3120 3121 3119 3118 3119 3114 3117 3118 3118 3118 3118 3120 3122 3124 3126 3128 3130 3132 3133 3134 3136 3138 3140 3141 3143 3143 3144 3145 3145 3144 3144 3144 3144 3143 3142
3106 3109 3110 3112 3115 3114 3116 3117 3115 3114 3115 3115 3116 3118 3113 3114 3115 3115 3115 3115 3115 3116 3119 3121 3123 3125 3127 3128 3130 3132 3133 3135 3136 3138 3138 3139 3140 3139 3139 3138 3138 3137 3135 3135
3099 3103 3105 3107 3110 3111 3110 3113 3112 3112 3111 3110 3115 3112 3111 3112 3112 3111 3110 3110 3111 3112 3113 3114 3116 3119 3120 3123 3125 3127 3129 3131 3132 3132 3133 3134 3134 3133 3132 3131 3132 3128 3127 3126
3092 3097 3099 3103 3105 3108 3107 3108 3110 3111 3112 3113 3110 3110 3109 3109 3109 3108 3107 3106 3107 3107 3108 3109 3110 3112 3113 3115 3118 3121 3122 3124 3126 3127 3127 3127 3127 3127 3126 3125 3124 3122 3122 3120
3089 3093 3096 3097 3101 3103 3104 3104 3107 3108 3107 3107 3103 3107 3105 3106 3107 3106 3106 3105 3104 3104 3104 3104 3104 3106 3107 3110 3111 3113 3116 3119 3120 3120 3121 3121 3121 3120 3120 3118 3118 3115 3115 3114
3085 3089 3092 3093 3095 3097 3100 3100 3102 3102 3103 3099 3101 3101 3102 3104 3104 3103 3103 3103 3103 3102 3101 3101 3101 3102 3103 3105 3106 3107 3109 3111 3113 3114 3115 3115 3115 3114 3112 3111 3111 3110 3108 3106
3078 3084 3086 3089 3090 3092 3093 3095 3097 3097 3099 3100 3100 3099 3099 3099 3100 3100 3100 3100 3100 3100 3099 3099 3099 3099 3100 3102 3103 3104 3105 3107 3109 3109 3109 3110 3109 3108 3107 3106 3104 3103 3101 3098
3072 3076 3081 3083 3087 3087 3089 3091 3093 3094 3094 3094 3096 3094 3094 3096 3096 3096 3096 3096 3096 3096 3096 3096 3095 3096 3097 3098 3099 3101 3102 3103 3104 3105 3104 3104 3103 3103 3101 3099 3097 3095 3092 3090
3066 3070 3072 3074 3077 3082 3084 3085 3087 3089 3089 3089 3088 3089 3091 3092 3092 3093 3092 3091 3091 3091 3092 3092 3092 3092 3093 3094 3095 3096 3097 3097 3098 3098 3098 3097 3096 3095 3093 3090 3088 3085 3083 3081
3061 3064 3068 3071 3074 3076 3077 3079 3081 3082 3083 3083 3083 3084 3086 3087 3087 3087 3086 3086 3085 3086 3087 3087 3088 3089 3089 3090 3091 3092 3092 3093 3093 3093 3091 3090 3088 3086 3084 3081 3078 3075 3073 3071
3055 3060 3063 3065 3069 3069 3070 3072 3074 3075 3076 3076 3077 3078 3080 3081 3081 3081 3081 3081 3080 3080 3081 3082 3083 3084 3085 3086 3086 3086 3087 3086 3086 3086 3084 3083 3080 3077 3075 3072 3070 3068 3066 3063
3049 3054 3059 3060 3062 3063 3063 3062 3066 3068 3069 3071 3070 3072 3074 3073 3074 3074 3074 3075 3075 3075 3076 3077 3077 3078 3079 3079 3080 3080 3080 3080 3079 3078 3076 3073 3071 3069 3066 3064 3062 3060 3057 3055
3043 3048 3053 3055 3056 3056 3056 3057 3059 3060 3062 3064 3065 3066 3066 3066 3065 3066 3067 3068 3069 3069 3070 3071 3071 3072 3073 3074 3075 3075 3075 3074 3072 3069 3067 3065 3063 3060 3058 3055 3053 3051 3048 3047
3037 3042 3046 3047 3049 3049 3048 3050 3053 3054 3056 3059 3057 3059 3058 3057 3057 3057 3058 3060 3061 3062 3063 3064 3066 3067 3068 3068 3069 3068 3067 3066 3064 3062 3060 3058 3055 3053 3050 3048 3046 3043 3041 3038
3032 3036 3041 3040 3042 3040 3044 3046 3049 3051 3045 3053 3051 3051 3048 3050 3050 3049 3049 3051 3053 3055 3057 3059 3060 3061 3061 3061 3061 3060 3059 3058 3056 3055 3052 3050 3047 3045 3042 3040 3038 3036 3033 3031
3024 3028 3032 3035 3035 3035 3038 3041 3043 3046 3041 3045 3045 3044 3042 3043 3044 3043 3044 3046 3048 3051 3053 3054 3055 3055 3055 3055 3054 3053 3052 3051 3049 3046 3044 3041 3038 3036 3034 3032 3030 3028 3025 3023
3020 3022 3024 3030 3031 3030 3031 3035 3037 3036 3036 3037 3036 3036 3037 3036 3037 3038 3039 3042 3045 3047 3049 3050 3050 3050 3049 3048 3048 3047 3045 3043 3040 3038 3035 3033 3031 3029 3027 3024 3022 3019 3017 3014
3018 3016 3019 3020 3020 3023 3024 3027 3030 3031 3031 3030 3029 3029 3029 3030 3031 3033 3035 3038 3041 3042 3043 3044 3044 3043 3043 3042 3040 3039 3037 3035 3033 3030 3028 3026 3024 3021 3019 3017 3015 3012 3010 3007
3008 3010 3012 3015 3015 3018 3020 3021 3023 3024 3024 3023 3022 3022 3023 3025 3026 3028 3031 3033 3035 3036 3037 3037 3037 3036 3035 3034 3032 3031 3029 3026 3024 3022 3020 3018 3016 3014 3012 3010 3008 3005 3002 2999
3003 3005 3006 3007 3009 3012 3014 3016 3017 3017 3016 3016 3015 3017 3018 3019 3021 3023 3026 3028 3029 3030 3030 3030 3029 3028 3027 3026 3024 3022 3020 3017 3016 3014 3013 3011 3009 3007 3005 3002 3000 2996 2993 2990
2994 2996 2998 2999 3005 3007 3010 3009 3009 3009 3009 3009 3009 3010 3012 3014 3016 3018 3020 3021 3022 3022 3022 3021 3021 3020 3019 3017 3015 3013 3012 3010 3009 3007 3006 3004 3002 2999 2997 2994 2990 2990 2985 2980